Location: Unspecified
(43.3830°N, 0.0000°E)
Time: 14:34:37
(UTC+00:00)

Explorer 7 - Pass Details

Date: 01 July 2019
Orbit: 485 x 680 km, 50.3° (Epoch: 16 July)

Event Time Altitude Azimuth Distance (km) Brightness Sun altitude
Rises 11:06:04 0° 298° (WNW) 2,847 10.2 66.5°
Reaches altitude 10° 11:08:18 10° 296° (WNW) 1,973 9.6 66.7°
Maximum altitude 11:12:50 69° 214° (SW) 685 8.8 67.2°
Drops below altitude 10° 11:17:35 10° 132° (SE) 2,069 10.2 67.6°
Sets 11:19:59 0° 129° (SE) 2,997 10.9 67.8°
